STARLINK-35347, 65907

Orbit data source: Space-Track

STARLINK-35347, 65907 is a payload satellite owned by SpaceX/Seattle (US) in LEO that was launched on Tue, 07 Oct 2025 UTC via an FALCON 9 launch vehicle from the Air Force Eastern Test Range (AFETR). Payload-class satellites include a variety of spacecraft equipped with specific instruments for various scientific and technological missions. These include communications satellites like Starlink; space stations such as the ISS; scientific satellites like the Hubble; Earth observation satellites from companies like Planet Labs, Umbra, and HawkEye 360; GPS; miniature CubeSats for education and research; and military/defense satellites.

Loading next visibility...
Identifier
65907, 2025-224AB
Orbit
LEO
Country
Flag of USUS
Related business
Manufacturer
SpaceX/Seattle
Mission
Operational spacecraft
Bus & Motor
STARLINK V2MO, Unknown motor
Mass
575 kg wet, ~530 kg dry
Launch date (UTC)
2025-10-07 (2 months ago)
Launch vehicle
FALCON 9
Launch site
Air Force Eastern Test Range (AFETR)
Object type
Payload
Rocket body
Debris
Shape & HBR
Unknown shape, 17.7 m
Radar Cross Section
RCS unknown

Expand to show TLE details & history
Last TLE update: 15 hours ago

TLE from 15 hours ago
0 STARLINK-35347
1 65907U 25224AB  25340.59640690  .00053692  00000-0  18093-2 0  9993
2 65907  53.1611  83.5799 0001354  93.0716 267.0440 15.30246835 10603
Epoch: 2025-12-06T14:18Z
TLE epoch observation values (Epoch: 2025-12-06T14:18:49.556Z)
Latitude
0.00002°
Longitude
153.25155°
Altitude
476.023 km
Speed
7.629 km/s
True Right ascension
05h 34m 19s
True Declination
0° 00' 00"
Sunlit
Object was in full shadow at epoch
Visualization orbit readout
Latitude
Unknown
Longitude
Unknown
Altitude
Unknown
Speed
Unknown
Apparent Right ascension
Unknown
Apparent Declination
Unknown
Sunlit
N/A
Visualization observer readout
Local Sidereal Time
03:09:00
Azimuth
Unknown
Elevation
Unknown
Doppler factor
Unknown
Orbital elements
Apogee altitude
476.259 km
Perigee altitude
474.404 km
Semi-major axis
6,853.468 km
Eccentricity
0.00014
Inclination
53.1611°
RAAN
83.5799°
Arg. of periapsis
93.0716°
True anomaly
267.02851°
Mean anomaly
267.044°
Eccentric anomaly
267.03625°
Mean motion
3.82541 °/min
Orbital period
94.11 mins
BSTAR
0.0018093
Loading maneuver chart data...
Computing Atmospheric mass density...
Loading historical data...
Loading historical data...
Loading historical data...
Loading historical data...
Loading historical data...
Loading historical data...
Loading historical data...

Documentation

Showing up to 5 results
|